(162773) = 2000 WJ191

Discovered at Anderson Mesa on 2000-11-19 by LONEOS.

Orbit

Orbit type: Main Belt

Note: WebGL enabled browser required.

epoch2024-03-31.0
epoch JD2460400.5
perihelion date2022-11-05.22665
perihelion JD2459888.72665
argument of perihelion (°)170.39709
ascending node (°)178.75808
inclination (°)5.88951
eccentricity0.1576369
perihelion distance (AU)2.0279732
Tisserand w.r.t. Jupiter3.5
ΔV w.r.t. Earth (km/sec)9.1
semimajor axis (AU)2.4074811
mean anomaly (°)135.03215
mean daily motion (°/day)0.26385150
aphelion distance (AU)2.787
period (years)3.74
P-vector [x]0.98215943
P-vector [y]-0.17862525
P-vector [z]-0.05878665
Q-vector [x]0.18803697
Q-vector [y]0.93656647
Q-vector [z]0.29577921
absolute magnitude16.55
phase slope0.15
uncertainty0
referenceMPEC 2024-C181
observations used616
oppositions18
arc length (days)10023
first opposition used1996
last opposition used2024
residual rms (arc-secs)0.66
perturbers coarse indicatorM-v
perturbers precise indicator003Ek
first observation date used1996-09-05.0
last observation date used2024-02-14.0
computer nameMPCLINUX
JD of orbit computation2456877.871162
perihelion JD uncertainty (days)5.1366E-05
argument of perihelion uncertainty (°)3.8185E-05
ascending node uncertainty (°)3.5897E-05
inclination uncertainty (°)5.5290E-06
eccentricity uncertainty 4.8979E-08
perihelion distance uncertainty (AU)1.1961E-07
Minimum Orbit Intersection Distances (in AU)
for orbit epoch: 2460400.5, reference: E2024-CI1
Mercury1.64814
Venus1.304
Earth1.02199
Mars0.64192
Jupiter2.62809
Saturn6.48387
Uranus15.6551
Neptune27.5676

Observations

628 total observations over interval: 1996 09 05.35460 – 2024 02 14.272662
These data are available for download (format description).

Date (UT) J2000 RA J2000 Dec Magn Location Ref
1996 09 05.35460 23 40 14.28 -00 01 00.1   691 – Steward Observatory, Kitt Peak-Spacewatch MPS 59769
1996 09 05.37555 23 40 13.27 -00 01 10.8 18.9 V 691 – Steward Observatory, Kitt Peak-Spacewatch MPS 59769
1996 09 05.39789 23 40 12.27 -00 01 22.8   691 – Steward Observatory, Kitt Peak-Spacewatch MPS 59769
1996 09 08.38173 23 38 07.47 -00 28 31.2   691 – Steward Observatory, Kitt Peak-Spacewatch MPS 59769
1996 09 08.40287 23 38 06.52 -00 28 43.0 18.7 V 691 – Steward Observatory, Kitt Peak-Spacewatch MPS 59769
1996 09 08.43700 23 38 04.96 -00 29 01.6   691 – Steward Observatory, Kitt Peak-Spacewatch MPS 59769
2000 09 24.39779 03 21 51.50 +13 25 46.1 18.8 R 699 – Lowell Observatory-LONEOS MPS 54881
2000 09 24.42030 03 21 51.62 +13 25 40.7   699 – Lowell Observatory-LONEOS MPS 54881
2000 09 24.44281 03 21 51.58 +13 25 33.7   699 – Lowell Observatory-LONEOS MPS 54881
2000 09 24.46528 03 21 51.71 +13 25 28.5   699 – Lowell Observatory-LONEOS MPS 54881
2000 10 02.43375 03 21 22.35 +12 44 39.8 20.2   704 – Lincoln Laboratory ETS, New Mexico MPS 54881
2000 10 02.45007 03 21 22.17 +12 44 34.9 20.1   704 – Lincoln Laboratory ETS, New Mexico MPS 54881
2000 10 02.46570 03 21 21.97 +12 44 29.3 20.3   704 – Lincoln Laboratory ETS, New Mexico MPS 54881
2000 10 02.48071 03 21 21.73 +12 44 23.9 20.3   704 – Lincoln Laboratory ETS, New Mexico MPS 54881
2000 11 02.31066 03 01 37.60 +09 14 11.1 18.9   704 – Lincoln Laboratory ETS, New Mexico MPS 54881
2000 11 02.32528 03 01 36.73 +09 14 05.6 19.2   704 – Lincoln Laboratory ETS, New Mexico MPS 54881
2000 11 02.33948 03 01 35.90 +09 13 59.3 19.0   704 – Lincoln Laboratory ETS, New Mexico MPS 54881
2000 11 02.35391 03 01 35.11 +09 13 53.1 18.8   704 – Lincoln Laboratory ETS, New Mexico MPS 54881
2000 11 19.23273 02 46 23.15 +07 35 13.3 18.4 R 699 – Lowell Observatory-LONEOS MPS 25343
2000 11 19.25613 02 46 21.79 +07 35 06.9   699 – Lowell Observatory-LONEOS MPS 25343
2000 11 19.27954 02 46 20.68 +07 35 00.5   699 – Lowell Observatory-LONEOS MPS 25343
2000 11 19.30299 02 46 19.54 +07 34 53.9   699 – Lowell Observatory-LONEOS MPS 25343
2000 11 20.25856 02 45 33.77 +07 30 42.4 18.2   704 – Lincoln Laboratory ETS, New Mexico MPS 25343
2000 11 20.27315 02 45 32.98 +07 30 38.7 18.9   704 – Lincoln Laboratory ETS, New Mexico MPS 25343
2000 11 20.28784 02 45 32.48 +07 30 34.4 18.8   704 – Lincoln Laboratory ETS, New Mexico MPS 25343
2002 03 21.17817 10 27 27.26 +07 16 04.2 21.1 V 691 – Steward Observatory, Kitt Peak-Spacewatch MPS 59769
2002 03 21.19982 10 27 26.30 +07 16 11.9 21.4 V 691 – Steward Observatory, Kitt Peak-Spacewatch MPS 59769
2002 03 21.22130 10 27 25.38 +07 16 20.4 21.3 V 691 – Steward Observatory, Kitt Peak-Spacewatch MPS 59769
2004 12 18.30980 05 37 16.79 +13 21 19.2 19.4   704 – Lincoln Laboratory ETS, New Mexico MPS 122642
2004 12 18.32844 05 37 15.47 +13 21 19.3 19.9   704 – Lincoln Laboratory ETS, New Mexico MPS 122642
2004 12 18.34238 05 37 14.61 +13 21 18.4 19.6   704 – Lincoln Laboratory ETS, New Mexico MPS 122642
2006 03 06.36881 12 29 25.19 -02 58 22.8   691 – Steward Observatory, Kitt Peak-Spacewatch MPS 165932
2006 03 06.38649 12 29 24.36 -02 58 16.7   691 – Steward Observatory, Kitt Peak-Spacewatch MPS 165932
2006 03 06.40379 12 29 23.65 -02 58 09.4   691 – Steward Observatory, Kitt Peak-Spacewatch MPS 165932
2006 03 24.28902 12 14 52.94 -00 47 20.5 20.2 V G96 – Mt. Lemmon Survey MPS 166929
2006 03 24.29624 12 14 52.54 -00 47 17.1 20.3 V G96 – Mt. Lemmon Survey MPS 166929
2006 03 24.30337 12 14 52.15 -00 47 13.6 20.2 V G96 – Mt. Lemmon Survey MPS 166929
2006 03 24.31059 12 14 51.75 -00 47 10.3 20.2 V G96 – Mt. Lemmon Survey MPS 166929
2006 03 25.33251 12 13 58.15 -00 39 15.9 20.4 V G96 – Mt. Lemmon Survey MPS 166929
2006 03 25.33888 12 13 57.79 -00 39 13.4 20.2 V G96 – Mt. Lemmon Survey MPS 166929
2006 03 25.34494 12 13 57.46 -00 39 10.4 20.0 V G96 – Mt. Lemmon Survey MPS 166929
2006 03 25.35062 12 13 57.14 -00 39 07.7 20.2 V G96 – Mt. Lemmon Survey MPS 166929
2006 05 05.17891 11 47 52.62 +03 19 15.8 20.8 V G96 – Mt. Lemmon Survey MPS 170745
2006 05 05.18502 11 47 52.54 +03 19 17.0 20.6 V G96 – Mt. Lemmon Survey MPS 170745
2006 05 05.19129 11 47 52.47 +03 19 17.8 21.2 V G96 – Mt. Lemmon Survey MPS 170745
2006 05 05.19759 11 47 52.40 +03 19 18.9 21.1 V G96 – Mt. Lemmon Survey MPS 170745
2007 08 13.20830 20 24 30.08 -10 55 29.8 18.4   704 – Lincoln Laboratory ETS, New Mexico MPS 213038
2007 08 13.22041 20 24 29.43 -10 55 34.4 18.8   704 – Lincoln Laboratory ETS, New Mexico MPS 213038
2007 08 13.23253 20 24 28.98 -10 55 36.6 18.7   704 – Lincoln Laboratory ETS, New Mexico MPS 213038
2007 08 13.24466 20 24 28.24 -10 55 44.0 18.8   704 – Lincoln Laboratory ETS, New Mexico MPS 213038
2007 08 13.25675 20 24 27.71 -10 55 47.9 19.2   704 – Lincoln Laboratory ETS, New Mexico MPS 213038
2007 09 07.12939 20 13 03.39 -13 35 36.8 19.0   704 – Lincoln Laboratory ETS, New Mexico MPS 214995
2007 09 07.16388 20 13 03.08 -13 35 48.7 19.4   704 – Lincoln Laboratory ETS, New Mexico MPS 214995
2007 09 07.17529 20 13 03.01 -13 35 52.1 19.5   704 – Lincoln Laboratory ETS, New Mexico MPS 214995
2007 10 15.08925 20 33 47.12 -15 28 08.8   291 – LPL/Spacewatch II MPS 222304
2007 10 15.09656 20 33 47.59 -15 28 09.1 20.1 V G96 – Mt. Lemmon Survey MPS 222304
2007 10 15.09744 20 33 47.66 -15 28 09.1 20.0 V G96 – Mt. Lemmon Survey MPS 222304
2007 10 15.09760 20 33 47.65 -15 28 08.7   291 – LPL/Spacewatch II MPS 222304
2007 10 15.10368 20 33 48.04 -15 28 09.4   291 – LPL/Spacewatch II MPS 222304
2007 10 15.10602 20 33 48.20 -15 28 09.5 20.1 V G96 – Mt. Lemmon Survey MPS 222304
2007 10 15.10692 20 33 48.27 -15 28 09.2 20.0 V G96 – Mt. Lemmon Survey MPS 222304
2007 10 15.11544 20 33 48.78 -15 28 09.4 20.2 V G96 – Mt. Lemmon Survey MPS 222304
2007 10 15.11634 20 33 48.85 -15 28 09.3 20.2 V G96 – Mt. Lemmon Survey MPS 222304
2007 10 15.12488 20 33 49.39 -15 28 09.1 20.0 V G96 – Mt. Lemmon Survey MPS 222304
2007 10 15.12576 20 33 49.46 -15 28 09.4 20.1 V G96 – Mt. Lemmon Survey MPS 222304
2007 10 16.10174 20 34 54.15 -15 28 11.7 19.3 V G96 – Mt. Lemmon Survey MPS 222304
2007 10 16.10918 20 34 54.76 -15 28 12.2 20.1 V G96 – Mt. Lemmon Survey MPS 222304
2007 10 16.11668 20 34 55.23 -15 28 12.2 20.0 V G96 – Mt. Lemmon Survey MPS 222304
2007 10 16.12415 20 34 55.74 -15 28 12.1 20.1 V G96 – Mt. Lemmon Survey MPS 222304
2009 01 03.37862 07 56 10.64 +12 00 20.8 20.2 V G96 – Mt. Lemmon Survey MPS 272131
2009 01 03.38701 07 56 10.14 +12 00 22.0 20.0 V G96 – Mt. Lemmon Survey MPS 272131
2009 01 03.39548 07 56 09.63 +12 00 23.5 19.9 V G96 – Mt. Lemmon Survey MPS 272131
2009 01 03.40407 07 56 09.13 +12 00 24.5 19.8 V G96 – Mt. Lemmon Survey MPS 272131
2009 01 20.27720 07 38 57.43 +13 00 00.9 19.3   704 – Lincoln Laboratory ETS, New Mexico MPS 275887
2009 01 20.29026 07 38 56.61 +13 00 05.2 20.0   704 – Lincoln Laboratory ETS, New Mexico MPS 275887
2009 01 20.31666 07 38 54.97 +13 00 11.6 19.4   704 – Lincoln Laboratory ETS, New Mexico MPS 275887
2009 01 20.32945 07 38 54.13 +13 00 13.3 19.6   704 – Lincoln Laboratory ETS, New Mexico MPS 275887
2010 03 25.37938 14 08 48.00 -09 07 55.7 21.1 V 691 – Steward Observatory, Kitt Peak-Spacewatch MPS 320421
2010 03 25.39709 14 08 47.39 -09 07 49.6 20.5 V 691 – Steward Observatory, Kitt Peak-Spacewatch MPS 320421
2010 03 25.41480 14 08 46.77 -09 07 43.0 20.8 V 691 – Steward Observatory, Kitt Peak-Spacewatch MPS 320421
2010 04 09.24331 13 58 03.20 -07 30 19.3 20.5 V 691 – Steward Observatory, Kitt Peak-Spacewatch MPS 321951
2010 04 09.26092 13 58 02.30 -07 30 11.6 20.4 V 691 – Steward Observatory, Kitt Peak-Spacewatch MPS 321951
2010 04 09.27853 13 58 01.38 -07 30 04.5 20.4 V 691 – Steward Observatory, Kitt Peak-Spacewatch MPS 321951
2010 04 12.23040 13 55 30.26 -07 09 04.9 20.8 V 691 – Steward Observatory, Kitt Peak-Spacewatch MPS 323231
2010 04 12.24803 13 55 29.36 -07 08 57.9 20.2 V 691 – Steward Observatory, Kitt Peak-Spacewatch MPS 323231
2010 04 12.26569 13 55 28.41 -07 08 50.1 20.5 V 691 – Steward Observatory, Kitt Peak-Spacewatch MPS 323231
2010 04 18.393884 13 50 02.546 -06 24 59.24 20.62 g F51 – Pan-STARRS 1, Haleakala MPS 338616
